This demonstration page uses our WeatherBlox Daily Observations layout. Learn more.

Left ArrowRight Arrow

Hourly Observations for July 28, 2018

Temp ( °F °C ) Dew Point ( °F °C ) Humidity (%) Winds ( mph kmh ) Pressure ( in mb ) Visibility ( mi km ) Precip ( " mm )
12:15 am 00:15 Clear 63 17.2 60 15.7 91 91 N N/A 30.09 1019 10 16 N/A
12:35 am 00:35 Clear 62 16.8 60 15.5 92 92 N N/A 30.06 1018 10 16 N/A
12:55 am 00:55 Clear 62 16.7 60 15.7 94 94 N N/A 30.09 1019 10 16 N/A
1:15 am 01:15 Clear 63 17.1 61 16.2 94 94 N 5 7 30.09 1019 10 16 N/A
1:35 am 01:35 Clear 64 17.5 62 16.7 95 95 NE 6 9 30.09 1019 7 11 N/A
1:55 am 01:55 Partly Cloudy 65 18.3 64 17.5 95 95 NNE 6 9 30.09 1019 7 11 N/A
2:15 am 02:15 Mostly Cloudy with Mist and Fog 66 18.8 64 18 95 95 NE 8 13 30.06 1018 3 5 N/A
2:35 am 02:35 Cloudy with Mist and Fog 66 18.8 64 18 95 95 NNE 6 9 30.06 1018 3 5 N/A
2:55 am 02:55 Mostly Cloudy with Mist and Fog 65 18.5 64 17.7 95 95 N 6 9 30.06 1018 3 5 N/A
3:15 am 03:15 Partly Cloudy with Mist and Fog 65 18.4 64 17.5 95 95 NNW 5 7 30.06 1018 4 6 N/A
3:35 am 03:35 Clear with Mist and Fog 65 18.3 64 17.5 95 95 NNE 3 6 30.06 1018 4 6 N/A
3:55 am 03:55 Clear with Mist and Fog 65 18.1 63 17.3 95 95 N N/A 30.06 1018 4 6 N/A
4:15 am 04:15 Clear with Mist and Fog 64 18 63 17.2 95 95 ENE 5 7 30.06 1018 4 6 N/A
4:35 am 04:35 Clear 65 18.1 63 17.3 95 95 SE 5 7 30.03 1017 7 11 N/A
4:55 am 04:55 Partly Cloudy 65 18.3 63 17.3 94 94 S 8 13 30.03 1017 7 11 N/A
5:15 am 05:15 Clear 65 18.3 63 17.2 93 93 SSE 8 13 30.00 1016 7 11 N/A
5:35 am 05:35 Mostly Cloudy 65 18.5 63 17.3 93 93 SSE 7 11 30.00 1016 7 11 N/A
5:55 am 05:55 Cloudy 66 18.7 63 17.3 92 92 N 10 17 30.06 1018 10 16 N/A
6:15 am 06:15 Mostly Cloudy 65 18.5 63 17 91 91 NE 7 11 30.06 1018 10 16 N/A
6:35 am 06:35 Partly Cloudy 65 18.4 62 16.8 90 90 NNE 7 11 30.06 1018 10 16 N/A
6:55 am 06:55 Partly Cloudy 65 18.1 63 17 93 93 NNW 5 7 30.09 1019 7 11 N/A
7:15 am 07:15 Cloudy 65 18.1 63 17 93 93 N N/A 30.09 1019 7 11 N/A
7:35 am 07:35 Cloudy 65 18.2 63 17.1 93 93 E 3 6 30.06 1018 7 11 N/A
7:55 am 07:55 Cloudy 65 18.2 62 16.9 92 92 E 8 13 30.06 1018 7 11 N/A
8:15 am 08:15 Cloudy with Mist and Fog 65 18.2 62 16.8 92 92 SE 9 15 30.06 1018 5 8 N/A
8:35 am 08:35 Cloudy with Mist and Fog 65 18.5 62 16.8 90 90 ESE 10 17 30.06 1018 5 8 N/A
8:55 am 08:55 Cloudy 65 18.6 62 16.7 89 89 SE 6 9 30.06 1018 7 11 N/A
9:15 am 09:15 Cloudy 65 18.6 62 16.7 89 89 E 8 13 30.06 1018 7 11 N/A
9:35 am 09:35 Cloudy 65 18.6 62 16.6 88 88 E 9 15 30.09 1019 7 11 N/A
9:55 am 09:55 Cloudy 66 18.8 62 16.8 88 88 E 8 13 30.09 1019 7 11 N/A
10:15 am 10:15 Cloudy 66 19.1 62 16.8 87 87 ESE 6 9 30.09 1019 7 11 N/A
10:35 am 10:35 Cloudy 68 20.1 63 17.3 84 84 E 6 9 30.06 1018 10 16 N/A
10:55 am 10:55 Cloudy 69 20.4 63 17.2 82 82 E 6 9 30.06 1018 10 16 N/A
11:15 am 11:15 Cloudy 69 20.5 63 17.1 81 81 ENE 7 11 30.06 1018 10 16 N/A
11:35 am 11:35 Cloudy 70 20.9 63 17.4 80 80 NNE 5 7 30.06 1018 10 16 N/A
11:55 am 11:55 Mostly Cloudy 70 21.2 63 17 77 77 N N/A 30.03 1017 10 16 N/A
12:15 pm 12:15 Cloudy 71 21.6 63 17.3 77 77 N N/A 30.03 1017 10 16 N/A
12:35 pm 12:35 Cloudy 72 22.2 64 17.6 75 75 NE 6 9 30.03 1017 10 16 N/A
12:55 pm 12:55 Cloudy 72 22.2 63 17.4 74 74 NNE 3 6 30.03 1017 10 16 N/A
1:15 pm 13:15 Cloudy 73 22.5 64 17.6 74 74 NE 6 9 30.03 1017 10 16 N/A
1:35 pm 13:35 Cloudy 74 23.3 64 18 72 72 ENE 8 13 30.00 1016 10 16 N/A
1:55 pm 13:55 Cloudy 74 23.1 64 17.6 71 71 NE 6 9 30.00 1016 10 16 N/A
2:15 pm 14:15 Cloudy 73 23 64 17.7 72 72 ENE 8 13 30.00 1016 10 16 N/A
2:35 pm 14:35 Cloudy 73 22.9 64 17.6 72 72 E 5 7 30.00 1016 10 16 N/A
2:55 pm 14:55 Cloudy 74 23.5 64 17.9 71 71 ENE 5 7 30.03 1017 10 16 N/A
3:15 pm 15:15 Partly Cloudy 75 24 64 18 69 69 ENE 7 11 30.00 1016 10 16 N/A
3:35 pm 15:35 Sunny 76 24.5 64 17.7 66 66 ESE 5 7 29.97 1015 10 16 N/A
3:55 pm 15:55 Partly Cloudy 76 24.3 64 17.5 66 66 E 6 9 29.97 1015 10 16 N/A
4:15 pm 16:15 Partly Cloudy 76 24.7 64 17.8 66 66 E 7 11 29.97 1015 10 16 N/A
4:35 pm 16:35 Sunny 76 24.5 64 17.8 66 66 E 8 13 29.97 1015 10 16 N/A
4:55 pm 16:55 Partly Cloudy 76 24.6 64 17.7 66 66 N N/A 29.97 1015 10 16 N/A
5:15 pm 17:15 Partly Cloudy 76 24.5 64 17.8 66 66 E 8 13 29.97 1015 10 16 N/A
5:35 pm 17:35 Sunny 76 24.5 64 17.5 65 65 ENE 5 7 29.97 1015 10 16 N/A
5:55 pm 17:55 Mostly Cloudy 76 24.4 64 17.9 67 67 NE 5 7 29.97 1015 10 16 N/A
6:15 pm 18:15 Mostly Cloudy 77 24.8 64 17.6 64 64 E 10 17 29.94 1014 10 16 N/A
6:35 pm 18:35 Partly Cloudy 75 24 64 17.6 68 68 E 9 15 29.94 1014 10 16 N/A
6:55 pm 18:55 Sunny 74 23.6 63 17.3 68 68 E 9 15 29.97 1015 10 16 N/A
7:15 pm 19:15 Sunny 74 23.3 63 17.2 69 69 E 7 11 29.97 1015 10 16 N/A
7:35 pm 19:35 Sunny 74 23.1 64 17.5 71 71 ENE 6 9 29.97 1015 10 16 N/A
7:55 pm 19:55 Mostly Cloudy 72 22.3 65 18.4 79 79 NE 3 6 30.00 1016 10 16 N/A
8:15 pm 20:15 Cloudy 72 22 65 18.5 81 81 NNE 6 9 30.00 1016 10 16 N/A
8:35 pm 20:35 Partly Cloudy 70 21.3 65 18.3 83 83 NNE 5 7 29.97 1015 10 16 N/A
8:55 pm 20:55 Partly Cloudy 70 20.9 65 18.2 85 85 NNE 7 11 29.97 1015 10 16 N/A
9:15 pm 21:15 Partly Cloudy 70 21 65 18.1 84 84 NNE 9 15 30.00 1016 10 16 N/A
9:35 pm 21:35 Mostly Cloudy 70 21.1 64 18 83 83 NNE 12 19 30.00 1016 10 16 N/A
9:55 pm 21:55 Cloudy 70 21.2 65 18.1 83 83 NNE 12 19 30.03 1017 10 16 N/A
10:15 pm 22:15 Cloudy with Rain 69 20.4 65 18.5 89 89 E 15 24 30.03 1017 7 11 0.01 0.25
10:35 pm 22:35 Partly Cloudy 69 20.3 66 19 92 92 E 9 15 30.03 1017 10 16 0.01 0.25
10:55 pm 22:55 Partly Cloudy 68 20.2 66 18.9 92 92 E 9 15 30.00 1016 10 16 0.01 0.25
11:15 pm 23:15 Partly Cloudy 68 20.1 66 18.7 92 92 ESE 13 20 30.00 1016 10 16 N/A
11:35 pm 23:35 Cloudy 68 20.2 66 19 93 93 SE 3 6 30.06 1018 10 16 0.01 0.25
11:55 pm 23:55 Cloudy 69 20.3 66 19 92 92 ESE 9 15 30.03 1017 10 16 0.01 0.25

Powered by AerisWeather